Precipitable_Water
1.25 1.26 1.24 1.23 1.25 1.28 1.31 1.31 1.32 1.32 1.29 1.29 1.27 1.26 1.28 1.34 1.43 1.46 1.48 1.52 1.54 1.51 1.45 1.38 1.36 1.29 1.20 1.23 1.25 1.27 1.32 1.33 1.29 1.24 1.20 1.23 1.23 1.21 1.19 1.23 1.27 1.30
1.26 1.27 1.27 1.28 1.29 1.32 1.34 1.33 1.30 1.29 1.28 1.28 1.30 1.32 1.36 1.39 1.45 1.51 1.52 1.54 1.56 1.51 1.44 1.36 1.32 1.28 1.15 1.17 1.22 1.26 1.31 1.31 1.20 1.25 1.20 1.21 1.24 1.24 1.22 1.19 1.20 1.26
1.27 1.26 1.26 1.24 1.25 1.28 1.29 1.34 1.33 1.32 1.30 1.29 1.32 1.35 1.36 1.44 1.48 1.54 1.55 1.56 1.52 1.48 1.41 1.35 1.30 1.24 1.16 1.17 1.21 1.28 1.28 1.26 1.21 1.22 1.20 1.20 1.25 1.23 1.22 1.21 1.19 1.18
1.26 1.25 1.24 1.26 1.30 1.29 1.30 1.31 1.34 1.34 1.34 1.31 1.32 1.36 1.36 1.42 1.51 1.55 1.56 1.57 1.51 1.46 1.43 1.38 1.32 1.25 1.16 1.16 1.17 1.23 1.27 1.26 1.25 1.25 1.18 1.20 1.22 1.22 1.20 1.23 1.20 1.18
1.23 1.24 1.25 1.28 1.31 1.33 1.32 1.29 1.28 1.31 1.31 1.32 1.36 1.38 1.38 1.40 1.47 1.51 1.52 1.50 1.46 1.43 1.42 1.39 1.33 1.23 1.13 1.12 1.13 1.13 1.22 1.24 1.23 1.23 1.19 1.15 1.17 1.18 1.19 1.23 1.21 1.19
1.27 1.25 1.25 1.25 1.28 1.30 1.29 1.27 1.28 1.29 1.31 1.34 1.35 1.38 1.39 1.39 1.39 1.43 1.45 1.43 1.41 1.40 1.39 1.38 1.31 1.23 1.13 1.10 1.11 1.08 1.12 1.14 1.16 1.15 1.16 1.16 1.16 1.18 1.17 1.20 1.23 1.23
1.24 1.23 1.22 1.24 1.26 1.29 1.26 1.27 1.30 1.32 1.33 1.36 1.39 1.36 1.37 1.36 1.35 1.38 1.42 1.42 1.39 1.38 1.36 1.35 1.31 1.24 1.17 1.11 1.11 1.10 1.11 1.11 1.11 1.12 1.12 1.16 1.17 1.16 1.17 1.15 1.20 1.24
1.27 1.25 1.23 1.22 1.22 1.26 1.24 1.26 1.29 1.33 1.36 1.39 1.34 1.37 1.35 1.32 1.34 1.37 1.41 1.39 1.37 1.35 1.33 1.32 1.32 1.28 1.21 1.13 1.09 1.07 1.08 1.14 1.12 1.10 1.08 1.12 1.17 1.16 1.18 1.15 1.14 1.16
1.30 1.25 1.21 1.20 1.21 1.24 1.24 1.26 1.29 1.34 1.39 1.36 1.35 1.35 1.36 1.32 1.31 1.34 1.36 1.37 1.35 1.33 1.32 1.32 1.32 1.30 1.26 1.17 1.09 1.06 1.04 1.08 1.12 1.11 1.08 1.08 1.11 1.14 1.18 1.17 1.10 1.10
1.29 1.26 1.22 1.20 1.19 1.22 1.24 1.27 1.30 1.34 1.39 1.37 1.37 1.36 1.32 1.33 1.33 1.32 1.33 1.33 1.31 1.30 1.30 1.30 1.30 1.29 1.24 1.19 1.11 1.06 1.04 1.05 1.10 1.11 1.11 1.11 1.11 1.13 1.19 1.19 1.11 1.09
1.28 1.26 1.23 1.20 1.19 1.23 1.23 1.27 1.31 1.34 1.37 1.35 1.37 1.35 1.35 1.35 1.36 1.37 1.33 1.29 1.26 1.25 1.26 1.26 1.27 1.26 1.23 1.20 1.16 1.11 1.07 1.08 1.10 1.12 1.13 1.13 1.14 1.15 1.18 1.18 1.11 1.11
1.26 1.26 1.23 1.20 1.21 1.24 1.25 1.28 1.31 1.34 1.34 1.36 1.37 1.36 1.39 1.40 1.38 1.39 1.36 1.33 1.32 1.32 1.31 1.31 1.32 1.32 1.29 1.26 1.22 1.18 1.13 1.14 1.16 1.19 1.21 1.20 1.18 1.18 1.18 1.15 1.09 1.12
1.25 1.24 1.23 1.22 1.24 1.25 1.28 1.31 1.32 1.34 1.35 1.34 1.41 1.41 1.40 1.38 1.39 1.38 1.41 1.40 1.40 1.40 1.38 1.38 1.38 1.39 1.38 1.37 1.35 1.31 1.24 1.21 1.24 1.25 1.26 1.21 1.19 1.21 1.17 1.10 1.08 1.15
1.26 1.24 1.24 1.25 1.28 1.30 1.30 1.32 1.33 1.35 1.37 1.42 1.45 1.43 1.42 1.43 1.43 1.43 1.46 1.49 1.50 1.50 1.52 1.54 1.54 1.54 1.53 1.52 1.51 1.48 1.40 1.33 1.29 1.29 1.28 1.22 1.21 1.22 1.15 1.08 1.09 1.18
1.27 1.27 1.28 1.29 1.31 1.32 1.32 1.32 1.34 1.37 1.41 1.45 1.47 1.47 1.50 1.52 1.54 1.56 1.55 1.57 1.60 1.62 1.63 1.65 1.63 1.62 1.62 1.61 1.59 1.58 1.55 1.41 1.30 1.30 1.29 1.20 1.13 1.15 1.16 1.13 1.15 1.25
1.28 1.28 1.28 1.31 1.32 1.32 1.32 1.34 1.36 1.39 1.43 1.47 1.50 1.53 1.55 1.59 1.61 1.64 1.64 1.62 1.63 1.67 1.70 1.70 1.68 1.68 1.68 1.67 1.66 1.61 1.54 1.45 1.36 1.31 1.25 1.19 1.15 1.14 1.13 1.14 1.18 1.30
1.28 1.28 1.29 1.29 1.32 1.34 1.35 1.37 1.39 1.43 1.46 1.49 1.54 1.57 1.60 1.64 1.67 1.66 1.66 1.68 1.69 1.70 1.70 1.70 1.69 1.70 1.70 1.70 1.66 1.63 1.57 1.51 1.40 1.29 1.25 1.21 1.18 1.10 1.06 1.12 1.20 1.30
1.26 1.27 1.28 1.31 1.34 1.34 1.37 1.40 1.44 1.48 1.49 1.51 1.55 1.58 1.64 1.70 1.70 1.68 1.70 1.72 1.75 1.75 1.71 1.69 1.70 1.72 1.73 1.71 1.66 1.62 1.59 1.56 1.47 1.32 1.27 1.24 1.21 1.14 1.08 1.12 1.19 1.25
1.29 1.27 1.29 1.32 1.35 1.38 1.42 1.46 1.48 1.50 1.51 1.53 1.54 1.61 1.68 1.69 1.69 1.71 1.72 1.76 1.76 1.71 1.67 1.69 1.70 1.72 1.73 1.71 1.66 1.62 1.59 1.56 1.48 1.37 1.30 1.28 1.27 1.18 1.11 1.15 1.20 1.24
1.34 1.31 1.32 1.36 1.41 1.43 1.47 1.49 1.50 1.50 1.54 1.60 1.64 1.69 1.70 1.70 1.74 1.74 1.76 1.74 1.69 1.66 1.67 1.69 1.71 1.74 1.73 1.68 1.65 1.62 1.60 1.57 1.52 1.42 1.34 1.32 1.30 1.22 1.14 1.15 1.23 1.25
1.39 1.37 1.37 1.43 1.47 1.49 1.50 1.51 1.52 1.56 1.60 1.64 1.67 1.69 1.70 1.71 1.73 1.74 1.72 1.68 1.67 1.69 1.68 1.68 1.71 1.75 1.72 1.67 1.62 1.62 1.64 1.63 1.57 1.48 1.40 1.34 1.32 1.26 1.20 1.20 1.28 1.36
1.42 1.43 1.46 1.49 1.51 1.53 1.53 1.52 1.55 1.59 1.61 1.69 1.73 1.76 1.78 1.78 1.78 1.75 1.67 1.65 1.68 1.69 1.68 1.67 1.70 1.71 1.67 1.62 1.61 1.67 1.68 1.61 1.53 1.48 1.44 1.39 1.34 1.28 1.23 1.22 1.28 1.36
1.47 1.47 1.50 1.53 1.55 1.54 1.53 1.55 1.59 1.64 1.70 1.77 1.73 1.73 1.72 1.71 1.67 1.63 1.65 1.66 1.67 1.68 1.66 1.65 1.65 1.65 1.62 1.60 1.64 1.69 1.68 1.60 1.54 1.52 1.47 1.42 1.36 1.26 1.22 1.27 1.31 1.32
1.53 1.53 1.52 1.56 1.59 1.56 1.57 1.62 1.69 1.73 1.75 1.78 1.69 1.66 1.63 1.60 1.57 1.56 1.59 1.64 1.66 1.66 1.67 1.62 1.60 1.61 1.61 1.63 1.68 1.69 1.66 1.58 1.57 1.52 1.44 1.38 1.30 1.26 1.27 1.31 1.36 1.33
1.60 1.59 1.59 1.60 1.62 1.64 1.66 1.65 1.67 1.69 1.74 1.74 1.68 1.61 1.54 1.52 1.52 1.51 1.55 1.61 1.65 1.65 1.65 1.61 1.58 1.58 1.59 1.61 1.64 1.64 1.62 1.58 1.51 1.43 1.34 1.29 1.23 1.21 1.27 1.26 1.26 1.34
1.66 1.64 1.65 1.65 1.65 1.68 1.69 1.69 1.71 1.71 1.68 1.63 1.58 1.52 1.47 1.46 1.48 1.50 1.51 1.54 1.59 1.60 1.57 1.57 1.55 1.55 1.56 1.56 1.57 1.56 1.54 1.51 1.46 1.36 1.26 1.22 1.20 1.19 1.20 1.24 1.30 1.36
Wind_Speed
19 19 18 18 17 17 16 15 14 13 12 12 11 11 10 10 9 9 9 8 8 8 9 10 10 10 10 10 10 10 11 11 12 12 13 13 14 13 13 12 11 10
20 20 19 18 18 18 17 16 15 14 13 13 12 11 10 10 10 10 9 9 9 9 10 11 11 11 11 11 11 11 12 12 12 13 13 14 14 13 12 12 12 11
21 21 20 19 19 19 18 17 16 15 14 13 13 12 11 11 11 11 11 10 10 10 11 12 12 12 12 11 12 12 13 13 13 14 15 15 15 14 13 12 12 12
22 21 21 20 20 19 19 17 16 16 15 14 13 13 12 12 11 11 11 11 11 11 12 12 13 12 12 12 13 13 14 14 15 15 15 15 15 15 13 13 13 13
22 22 22 21 20 20 19 18 17 16 16 15 14 14 13 13 12 12 12 12 12 12 13 13 14 13 13 14 14 15 15 16 16 16 16 16 16 16 14 14 13 14
22 22 22 21 21 20 20 19 18 17 16 16 15 14 14 14 13 13 13 12 12 13 13 14 15 15 14 15 15 16 17 17 17 17 17 17 17 16 16 15 15 15
23 22 22 22 21 21 20 20 19 18 17 16 16 15 15 14 14 14 14 14 13 14 14 15 15 16 16 16 16 17 18 18 18 18 18 18 18 17 17 17 17 17
23 22 22 22 22 21 21 20 19 18 17 17 16 16 15 15 15 14 14 14 14 15 15 15 16 16 17 17 18 18 18 19 19 19 19 19 18 18 18 18 18 18
23 23 23 22 22 22 21 20 19 18 18 17 17 16 16 16 15 15 15 15 15 15 15 16 16 17 17 18 19 19 20 20 20 20 20 19 19 19 19 18 18 18
23 23 23 23 23 22 22 21 20 19 18 18 17 17 17 16 16 16 16 16 16 16 16 16 17 17 18 19 19 20 21 21 20 20 20 20 20 20 20 19 19 19
23 23 23 23 23 22 22 21 21 20 19 18 18 17 17 17 17 16 16 16 16 16 16 17 17 18 19 19 20 20 21 21 21 21 21 21 21 21 21 20 20 20
24 24 24 24 23 23 22 22 21 20 20 19 18 18 18 18 17 17 17 17 17 17 17 18 18 19 19 20 20 21 21 21 21 21 21 22 21 21 21 21 21 21
24 24 24 24 24 23 23 22 21 21 20 20 19 19 19 18 18 18 17 17 18 18 18 18 19 19 20 20 21 21 21 21 22 22 22 22 22 22 22 22 22 22
24 24 24 24 24 24 23 22 22 21 21 20 20 20 19 19 18 18 18 18 18 18 18 19 20 20 21 21 21 22 22 22 22 22 22 22 22 22 23 23 22 22
25 25 25 24 24 24 23 23 22 22 21 21 20 20 19 19 19 19 18 18 18 18 19 19 20 21 21 22 23 23 23 23 23 23 23 22 22 22 22 22 22 22
25 25 25 25 25 24 24 23 22 22 22 21 20 20 20 19 19 19 19 19 18 19 19 20 20 21 22 23 24 24 23 23 23 23 22 22 22 22 22 22 22 22
26 26 26 25 25 25 24 23 23 22 22 21 20 20 20 20 19 19 19 19 19 19 20 20 21 21 22 23 24 24 24 23 22 22 22 22 22 22 22 22 22 23
27 26 26 26 26 25 24 24 23 22 22 21 21 20 20 20 20 20 20 19 20 20 20 20 21 21 22 24 24 24 24 24 23 22 22 23 23 22 22 22 22 23
27 27 27 27 26 25 25 24 23 23 22 21 21 20 20 20 20 20 20 20 21 21 21 21 21 22 22 23 24 24 24 24 23 22 22 23 23 23 22 22 23 24
28 28 27 27 27 26 25 24 24 23 22 22 21 20 20 21 21 21 21 21 21 21 21 22 22 22 22 23 24 24 24 23 23 23 23 24 24 23 23 23 23 24
28 28 28 27 27 26 26 25 24 23 22 21 21 21 21 21 21 21 21 22 22 22 23 23 23 23 23 24 24 24 23 23 23 23 23 24 24 24 23 23 23 24
29 29 28 28 27 27 26 25 24 23 22 22 21 21 21 21 21 21 22 22 23 23 23 24 23 24 24 25 24 24 23 23 23 23 23 24 24 24 23 23 24 24
29 29 28 28 28 27 26 25 24 23 22 22 22 21 21 21 21 21 22 22 23 24 24 24 24 24 25 25 24 24 23 23 23 23 24 24 24 24 24 24 24 25
29 29 29 28 28 27 26 25 24 23 23 23 22 22 21 21 21 22 22 23 24 24 25 25 25 25 25 25 24 24 24 23 23 23 24 24 24 24 24 24 25 26
30 29 29 28 28 27 26 25 24 24 23 23 23 22 22 22 22 22 22 23 24 25 25 25 26 26 25 25 25 24 24 23 23 24 24 24 23 24 24 25 25 26
30 30 29 28 28 27 26 25 25 24 24 23 23 22 22 22 22 22 22 22 23 25 25 26 26 26 26 25 25 25 24 24 23 23 23 23 23 24 25 25 25 26
Wind_Direction
224 225 226 226 226 226 224 224 225 224 223 223 225 229 232 236 238 241 247 255 261 266 272 279 286 293 296 297 299 301 306 310 311 313 316 318 320 322 323 325 327 325
224 225 226 226 226 226 225 225 225 225 226 226 228 232 235 238 240 244 251 257 264 269 273 279 287 292 292 294 296 298 301 306 309 311 314 316 317 316 316 319 323 323
224 225 225 225 226 226 225 225 226 227 227 229 231 234 237 240 242 247 253 260 266 271 275 280 287 291 290 292 295 296 298 303 306 309 311 313 315 313 309 311 315 318
224 224 225 225 226 226 226 226 226 227 228 230 232 235 239 242 245 249 253 259 266 271 275 280 286 288 289 290 293 294 297 300 302 304 306 308 311 309 304 303 308 313
223 224 225 225 226 226 226 226 227 227 228 230 233 237 240 243 247 251 254 259 265 270 274 278 283 286 287 288 290 291 292 294 296 298 301 303 305 306 302 298 301 306
223 223 224 225 225 225 226 227 227 227 228 231 234 238 241 244 249 254 256 260 265 269 272 277 281 283 284 286 288 289 289 290 291 292 295 298 300 302 300 296 296 300
222 222 223 224 224 224 225 226 227 228 230 232 235 239 242 245 250 254 258 262 265 269 272 276 279 280 282 284 285 287 287 288 288 288 290 294 295 296 296 295 295 297
222 222 222 223 223 223 224 225 227 229 231 234 237 240 243 246 250 254 259 262 265 269 272 275 278 280 282 284 285 286 286 287 288 287 287 289 291 291 292 293 295 295
222 222 222 222 222 223 224 225 228 230 232 235 238 241 244 248 251 254 258 261 265 268 272 275 278 281 284 285 285 285 286 287 288 287 285 285 287 288 289 291 293 293
223 223 223 222 223 224 225 226 228 231 233 235 238 241 244 248 252 255 258 261 265 268 271 274 277 280 283 285 285 285 285 286 287 286 285 283 284 286 287 288 290 290
223 223 223 223 224 224 225 227 228 231 233 235 238 240 244 247 251 255 258 261 265 269 272 275 277 280 282 285 286 285 285 286 286 286 285 283 282 283 284 285 287 287
223 223 224 224 224 224 226 227 229 231 233 235 238 241 244 248 251 255 259 262 266 270 273 276 279 281 283 285 285 285 285 285 285 285 285 283 281 281 282 284 285 285
224 224 225 225 224 225 227 228 230 232 233 236 240 242 246 249 252 256 260 264 268 272 276 278 281 283 284 285 285 285 284 283 284 284 284 282 281 281 282 283 283 283
225 225 225 225 225 227 228 229 231 232 234 238 240 243 247 251 254 258 262 266 270 274 278 281 283 284 286 286 286 285 284 282 283 284 283 282 280 280 281 282 282 282
225 225 225 225 225 227 229 230 231 233 235 238 241 245 249 253 256 260 264 268 272 276 280 283 284 286 286 286 286 286 284 282 282 283 283 281 279 279 280 280 280 280
225 225 224 224 225 227 229 230 231 233 236 238 242 246 250 255 258 261 264 268 272 277 281 284 286 287 287 286 286 286 284 281 281 282 282 280 279 278 279 279 278 279
225 225 224 224 226 227 229 230 232 234 237 240 243 247 251 255 258 261 264 267 272 277 281 283 286 287 287 287 288 286 283 280 280 281 281 280 279 278 277 277 278 279
224 225 224 225 226 228 229 231 233 235 238 241 245 248 252 255 258 261 264 267 273 278 280 283 286 286 286 288 289 287 282 279 278 279 281 280 280 279 277 277 278 279
224 225 225 225 226 228 230 232 234 236 239 243 246 249 252 255 258 262 265 269 274 277 280 283 286 287 287 288 290 288 283 279 278 278 280 280 280 279 277 277 278 280
224 224 224 225 227 229 231 232 234 237 241 244 247 250 253 256 259 263 267 270 273 276 280 283 287 288 288 288 289 289 284 280 278 279 279 280 280 278 276 276 278 280
222 223 224 225 227 229 231 233 235 238 241 244 248 251 254 256 260 264 268 271 273 277 280 284 287 288 287 288 289 289 284 280 279 280 281 281 281 279 277 276 277 280
221 222 223 225 227 229 231 233 236 238 241 245 248 252 255 258 261 265 268 271 274 278 281 284 286 287 287 288 288 287 284 280 279 280 281 282 282 280 278 276 277 280
220 220 223 225 227 229 231 233 236 239 242 245 248 252 256 260 263 266 269 273 276 278 280 283 286 287 286 287 287 285 283 281 280 281 281 281 281 281 279 278 278 280
219 220 222 224 226 228 231 233 236 239 243 246 249 253 257 261 264 266 270 274 278 280 281 283 286 287 286 286 286 284 283 281 280 280 280 280 279 279 280 281 280 280
220 220 221 223 226 228 230 233 236 239 242 245 249 253 257 260 263 266 271 276 279 281 282 283 285 287 286 286 285 283 281 281 280 280 280 278 278 279 280 281 281 281
220 220 221 223 226 228 230 233 236 240 242 245 249 253 256 259 262 267 272 276 280 282 283 282 284 286 286 285 284 282 280 280 281 281 279 278 278 279 281 281 281 282